Weather History for KHFF - April, 2014

Change the Weather History Date:

Tuesday, April 1, 2014

  Actual Average Record
Temperature  
Mean Temperature 59 °F -  
Max Temperature 82 °F 66 °F 82 °F (2014)
Min Temperature 37 °F 46 °F 36 °F (2011)
Degree Days  
Heating Degree Days 6    
Growing Degree Days 9 (Base 50)    
Moisture  
Dew Point 35 °F    
Average Humidity 54    
Maximum Humidity 96    
Minimum Humidity 11    
Precipitation  
Precipitation 0.00 in - - ()
Sea Level Pressure  
Sea Level Pressure 30.08 in    
Wind  
Wind Speed 3 mph (SW)    
Max Wind Speed 12 mph    
Max Gust Speed 18 mph    
Visibility 11 miles    
Events      
Averages and records for this station are not official NWS values.
T = Trace of Precipitation, MM = Missing Value Source: NWS Daily Summary

Daily Weather History Graph

Daily Weather History Graph

Search for Another Location

Airport or City:

Trip Planner

Search our weather history database for the weather conditions in past years. The results will help you decide how hot, cold, wet, or windy it might be!

Date:

Astronomy

Apr. 01, 2014 Rise Set
Actual Time 7:04 AM EDT 7:39 PM EDT
Civil Twilight 6:39 AM EDT 8:04 PM EDT
Nautical Twilight 6:09 AM EDT 8:34 PM EDT
Astronomical Twilight 5:38 AM EDT 9:05 PM EDT
Moon 8:10 AM EDT (4/1) 9:54 PM EDT (4/1)
Length of Visible Light 13h 25m
Length of Day
12h 34m
Waxing Crescent, 4% of the Moon is Illuminated
Apr 1
Waxing Crescent
Apr 7
First Quarter
Apr 15
Full
Apr 22
Last Quarter
Apr 29
New

Hourly Weather History & Observations

Time (EDT) Temp. Dew Point Humidity Pressure Visibility Wind Dir Wind Speed Gust Speed Precip Events Conditions
12:56 AM 44.2 °F 38.8 °F 81% 30.13 in 10.0 mi Calm Calm - N/A   Clear
1:57 AM 42.3 °F 38.8 °F 88% 30.12 in 10.0 mi Calm Calm - N/A   Clear
2:58 AM 40.5 °F 37.9 °F 91% 30.11 in 10.0 mi Calm Calm - N/A   Clear
3:59 AM 39.0 °F 37.6 °F 95% 30.10 in 10.0 mi NW 2.3 mph - N/A   Clear
4:56 AM 38.3 °F 37.0 °F 95% 30.11 in 10.0 mi NW 2.3 mph - N/A   Clear
5:57 AM 38.1 °F 37.0 °F 96% 29.81 in 10.0 mi NW 2.3 mph - N/A   Clear
6:55 AM 37.4 °F 36.1 °F 95% 30.13 in 10.0 mi NNW 1.2 mph - N/A   Clear
7:55 AM 39.7 °F 37.6 °F 92% 30.15 in 10.0 mi North 2.3 mph - N/A   Clear
8:55 AM 44.2 °F 40.8 °F 88% 30.15 in 10.0 mi North 2.3 mph - N/A   Clear
9:55 AM 57.2 °F 40.6 °F 54% 30.16 in 10.0 mi Calm Calm - N/A   Clear
10:55 AM 69.3 °F 40.6 °F 35% 30.15 in 10.0 mi Variable 2.3 mph - N/A   Clear
11:55 AM 74.1 °F 33.8 °F 23% 30.13 in 10.0 mi SSW 8.1 mph - N/A   Clear
12:55 PM 77.2 °F 31.5 °F 19% 30.10 in 10.0 mi Variable 6.9 mph - N/A   Clear
1:55 PM 77.7 °F 28.8 °F 17% 30.08 in 10.0 mi SW 5.8 mph - N/A   Scattered Clouds
2:55 PM 80.1 °F 26.2 °F 14% 30.07 in 10.0 mi SSW 9.2 mph - N/A   Scattered Clouds
3:56 PM 80.8 °F 22.3 °F 11% 30.04 in 12.0 mi South 8.1 mph 18.4 mph N/A   Clear
4:56 PM 81.1 °F 25.2 °F 13% 30.03 in 12.0 mi SW 9.2 mph - N/A   Clear
5:56 PM 81.5 °F 23.4 °F 12% 30.03 in 12.0 mi WSW 11.5 mph - N/A   Clear
6:56 PM 79.7 °F 27.3 °F 15% 30.03 in 12.0 mi WSW 4.6 mph - N/A   Clear
7:56 PM 69.8 °F 34.5 °F 27% 30.04 in 12.0 mi SSE 2.3 mph - N/A   Clear
8:56 PM 62.4 °F 38.5 °F 41% 30.06 in 12.0 mi South 1.2 mph - N/A   Clear
9:56 PM 57.7 °F 41.7 °F 55% 30.07 in 12.0 mi SSW 1.2 mph - N/A   Clear
10:56 PM 54.5 °F 43.2 °F 66% 30.08 in 12.0 mi SSE 1.2 mph - N/A   Clear
11:56 PM 52.3 °F 43.0 °F 70% 30.09 in 12.0 mi South 1.2 mph - N/A   Clear